STARLINK-11648, 63313

Orbit data source: Space-Track

STARLINK-11648, 63313 is a payload satellite owned by SpaceX/Seattle (US) in LEO that was launched on Tue, 18 Mar 2025 UTC via an FALCON 9 launch vehicle from the Air Force Eastern Test Range (AFETR). Payload-class satellites include a variety of spacecraft equipped with specific instruments for various scientific and technological missions. These include communications satellites like Starlink; space stations such as the ISS; scientific satellites like the Hubble; Earth observation satellites from companies like Planet Labs, Umbra, and HawkEye 360; GPS; miniature CubeSats for education and research; and military/defense satellites.

Loading next visibility...
Identifier
63313, 2025-057G
Orbit
LEO
Last TLE update
2 days ago
Origin
Manufacturer
SpaceX/Seattle
Mission
Operational Commercial Communications
Bus & Motor
STARLINK V2M, Unknown motor
Mass
730 kg wet, ~700 kg dry
Launch date (UTC)
2025-03-18 (4 months ago)
Launch vehicle
FALCON 9
Launch site
Air Force Eastern Test Range (AFETR)
Object type
Payload
Rocket body
Debris
Shape & HBR
Box + 2 Pan, 29 m
Radar Cross Section
36.964 m², Large (>1 m²)

Expand to show TLE details & history

TLE from 2 days ago
0 STARLINK-11648
1 63313U 25057G   25187.67507151  .00189091  00000-0  14415-2 0  9995
2 63313  42.9994 307.6286 0001644 287.6036  72.4652 15.70878659 18487
Epoch: 2025-07-06T16:12Z
TLE epoch observation values (Epoch: 2025-07-06T16:12:06.178Z)
Latitude
-0.00002°
Longitude
139.70748°
Altitude
355.822 km
Speed
7.698 km/s
True Right ascension
20h 30m 30s
True Declination
0° 00' 00"
Sunlit
Object was in full shadow at epoch
Visualization orbit readout
Latitude
28.21882°
Longitude
164.97808°
Altitude
355.235 km
Speed
7.7 km/s
Apparent Right ascension
01h 41m 23s
Apparent Declination
-10° 18' 33"
Sunlit
Object is in full shadow
Visualization observer readout
Local Sidereal Time
18:37:05
Azimuth
87.725° E
Elevation
-18.893°
Doppler factor
1
Orbital elements
Apogee altitude
359.474 km
Perigee altitude
357.259 km
Semi-major axis
6,736.503 km
Eccentricity
0.00016
Inclination
42.9994°
RAAN
307.6286°
Arg. of periapsis
287.6036°
True anomaly
Unknown
Mean anomaly
72.4652°
Eccentric anomaly
Unknown
Mean motion
3.92547 °/min
Orbital period
91.71 mins
BSTAR
0.0014415
Loading maneuver chart data...
Loading SW <> Apogee altitude chart data...
Loading historical data...
Loading historical data...
Loading historical data...
Loading historical data...
Loading historical data...
Loading historical data...
Loading historical data...

STARLINK-11648 Visibility forecast

Observer location: undefined°, undefined°

Span
Click to sort rows by Start time (UTC) header in descending order
Start Az.
Max El. time (UTC)
Max El. Az.
Max El.
End time (UTC)
End Az.
5 mins2025-07-08 11:08:40.706Z224.061° SW2025-07-08 11:10:40.706Z171.21° S33.941°2025-07-08 11:13:40.706Z80.946° E
4 mins2025-07-08 12:45:40.706Z286.359° WNW2025-07-08 12:46:40.706Z325.185° NNW36.742°2025-07-08 12:49:40.706Z68.047° E
4 mins2025-07-08 14:21:40.706Z300.901° NW2025-07-08 14:23:40.706Z38.604° NE35.171°2025-07-08 14:25:40.706Z82.889° E
4 mins2025-07-08 15:57:40.706Z272.487° WNW2025-07-08 15:59:40.706Z179.656° S35.723°2025-07-08 16:01:40.706Z131.456° SE
|